Погода в Ириклинском

Россия / Оренбургская область     51°40′24″N   58°38′31″E
темп.,
°C
ветер,
м/с
пор.,
м/с
влажн.,
%
обл.,
%
осадки,
мм/ч
давл.,
гПа
погр.,
м
8 августа, пн
пн823:00+20ссв356592 0.0 101774
02:00+18ссв477232 0.0 1017126
05:00+17ссв3677100 0.0 1017110
08:00+20ссв476753 0.0 1018277
11:00+20ссв477089 0.1 1018376
14:00+27св4743100 0.0 10162311
17:00+25св5750100 0.1 10161177
20:00+23всв2256100 0.0 101638
9 августа, вт
вт923:00+20ссв36675 0.0 1017107
02:00+20св3458100 0.0 101781
05:00+18ссв34655 0.0 101853
08:00+20ссв46615 0.0 1018270
11:00+24св674921 0.0 10181535
14:00+26св673617 0.0 10172136
17:00+25св874195 0.0 10171339
20:00+23ссв47508 0.0 1018248
10 августа, ср
ср1023:00+19ссв33600 0.0 101834
02:00+18с33645 0.0 101836
05:00+17с33690 0.0 101940
08:00+20с34600 0.0 1019197
11:00+26с33425 0.0 10181008
14:00+28с34315 0.0 10182434
17:00+29ссв34285 0.0 10172744
20:00+26с223741 0.0 101712
11 августа, чт
чт1123:00+23с234840 0.0 101739
02:00+23св225163 0.0 101835
05:00+20ссв11575 0.0 101811
08:00+23с11520 0.0 1019138
11:00+27сз11390 0.0 1019977
14:00+30зсз12306 0.0 10182692
17:00+31з122652 0.0 10172888
20:00+27сз2237100 0.0 101737
12 августа, пт
пт1223:00+24з114375 0.0 101715
02:00+23юз334845 0.1 101636
05:00+21з1155100 0.4 101611
08:00+22з3656100 0.1 1017159
11:00+25сз3647100 0.2 1016694
14:00+30зсз710325 0.0 10142640
17:00+29сз9926100 0.0 10142155
20:00+22ссз7114619 0.0 1016545